www.pogodaiklimat.ru

Погода и климат >> Архив погоды >> Канада >> Нунавут >> Кембридж Бэй


ПОГОДА в Кембридж Бэй

  • Прогноз погоды в Кембридж Бэй
  • Монитор погоды в Кембридж Бэй

АРХИВ ПОГОДЫ в Кембридж Бэй

Время (UTC), дата Ветер
(напр.,м/с)
 
Видим.   Явления Облачность Т
(С)
Тd
(С)
f
(%)
Тe
(С)
Тes
(С)
Комфортность P
(гПа)
Po
(гПа)
Тmin
(С)
Tmax
(С)
R
(мм)
R24
(мм)
S
(см)
09 14.04 С 5 24 км 1/0
[]
-30.8 -34.8 68 -44 -44 опасность
обморожения
1021.6 1017.3
12 14.04 СВ 3 24 км 1/0
[Ac trans]
-31.8 -35.7 68 -42 -42 опасность
обморожения
1022.5 1018.1 -33.4 -22.6 45
15 14.04 СВ 3 24 км 1/0
[]
-28.0 -32.0 68 -37 -35 опасность
обморожения
1022.4 1018.0
18 14.04 СЗ 1 24 км 1/0
[Ci fib]
-24.7 -28.7 69 -28 -22 1022.6 1018.2 -33.4 -24.7
21 14.04 С 3 24 км ясно -21.9 -26.7 65 -30 -26 1022.7 1018.4
00 15.04 С 2 24 км ясно -22.1 -26.5 67 -27 -25 1023.0 1018.6 -33.4 -21.7
03 15.04 С 2 24 км ясно -25.9 -29.3 73 -33 -33 опасность
обморожения
1023.3 1018.9
06 15.04 СЗ 3 24 км 1/0
[Ci fib]
-29.7 -33.1 72 -39 -39 опасность
обморожения
1023.6 1019.2 -33.4 -21.7 45
09 15.04 З 2 24 км ясно -30.6 -34.2 71 -37 -37 опасность
обморожения
1023.3 1019.0
12 15.04 С 1 24 км ясно -32.2 -36.0 69 -34 -33 опасность
обморожения
1023.6 1019.2 -32.8 -21.7 45
15 15.04 ЮЗ 2 24 км ясно -30.3 -34.7 65 -37 -34 опасность
обморожения
1023.4 1019.0
18 15.04 ЮЗ 3 24 км ясно -26.0 -29.8 70 -35 -30 опасность
обморожения
1023.1 1018.7 -32.8 -25.6 45
21 15.04 З 4 24 км ясно -23.1 -26.6 73 -33 -29 опасность
обморожения
1022.9 1018.6
00 16.04 ЮЗ 3 24 км ледяные иглы {снег} ясно -21.8 -25.6 71 -30 -28 1022.5 1018.2 -32.8 -21.8 0.0 45
03 16.04 З 5 24 км ясно -24.6 -27.9 74 -35 -35 опасность
обморожения
1022.2 1017.8
06 16.04 З 5 24 км 1/0
[Ac trans]
-27.1 -30.5 73 -38 -38 опасность
обморожения
1022.0 1017.7 -32.8 -21.8 45
09 16.04 З 4 24 км 1/0
[]
-28.1 -31.6 72 -39 -39 опасность
обморожения
1022.2 1017.9
12 16.04 ЮЗ 4 24 км ледяные иглы {снег} 1/0 2000 м
[Ac trans]
-28.8 -32.4 71 -39 -39 опасность
обморожения
1022.1 1017.8 -30.3 -21.8 0.0 45
15 16.04 ЮЗ 3 24 км 1/0 2000 м
[]
-27.4 -31.1 71 -36 -33 опасность
обморожения
1022.0 1017.7
18 16.04 ЮЗ 4 24 км в посл. час снег ясно -23.6 -27.0 73 -33 -28 опасность
обморожения
1022.0 1017.7 -30.3 -23.6 0.0 45
21 16.04 З 1 16 км ясно -19.3 -22.8 74 -22 -16 1021.8 1017.5
00 17.04 Ю 2 24 км 5/0
[Ac trans Ci]
-19.6 -24.1 67 -24 -23 1021.4 1017.1 -30.3 -18.6 45
03 17.04 ЮВ 1 24 км 3/0
[]
-23.1 -26.2 76 -27 -27 1020.6 1016.3
06 17.04 С 1 24 км 3/1 1500 м
[Sc Ac trans]
-25.3 -28.2 77 -26 -26 1020.3 1016.0 -30.3 -18.5 45
09 17.04 СВ 2 24 км 1/1 1500 м
[]
-28.0 -31.5 72 -34 -34 опасность
обморожения
1019.8 1015.5
12 17.04 СВ 3 24 км 6/0
[Ac As]
-29.8 -33.6 69 -39 -38 опасность
обморожения
1019.4 1015.1 -29.8 -18.5 45
15 17.04 С 2 24 км 6/0
[]
-26.6 -30.2 71 -32 -30 опасность
обморожения
1018.6 1014.3
18 17.04 В 1 24 км 10/0
[Ac inh Ci]
-21.7 -25.0 75 -25 -21 1018.4 1014.1 -29.8 -21.6 45
21 17.04 З 2 24 км 9/0
[]
-18.5 -21.6 77 -23 -20 1018.6 1014.3
00 18.04 З 2 24 км 3/0
[Ac trans Ci fib]
-18.6 -22.8 69 -23 -21 1019.0 1014.7 -29.8 -16.8 45
03 18.04 СЗ 2 24 км 1/0
[]
-22.2 -25.1 77 -29 -29 1019.0 1014.7
06 18.04 СЗ 2 24 км 1/0
[Ac und]
-26.3 -29.4 75 -33 -33 опасность
обморожения
1019.2 1014.9 -29.8 -16.8 45
09 18.04 ЮЗ 1 24 км 1/0
[]
-26.9 -30.1 74 -31 -31 опасность
обморожения
1019.1 1014.8
12 18.04 штиль 0 2400 м ледяные иглы {снег} 3/0
[Ac und Ci fib]
-30.7 -34.6 68 -31 -30 опасность
обморожения
1018.6 1014.3 -31.0 -16.8 0.0 45
15 18.04 ЮЗ 1 2400 м 4/0
[]
-25.8 -29.4 72 -30 -27 1017.7 1013.4
18 18.04 ЮЗ 1 19 км в посл. час снег 5/0
[Ac As Ci fib]
-21.5 -24.8 75 -25 -19 1016.9 1012.6 -31.1 -21.3 0.0 45
21 18.04 ЮЗ 2 24 км 3/0
[]
-19.1 -22.1 77 -24 -19 1016.2 1011.9
00 19.04 ЮЗ 2 24 км 1/0
[Ci fib]
-18.7 -21.6 78 -24 -23 1014.8 1010.5 -31.1 -18.0
03 19.04 З 2 24 км 3/3 100 м
[]
-22.3 -25.5 75 -29 -29 1013.9 1009.6
06 19.04 С 2 24 км 3/1 100 м
[St Ac As]
-27.3 -30.9 71 -33 -33 опасность
обморожения
1013.5 1009.2 -31.1 -18.0
09 19.04 С 4 24 км 3/3 300 м
[]
-28.6 -32.3 70 -40 -40 опасность
обморожения
1013.6 1009.3
12 19.04 С 6 24 км 4/1 50 м
[St Ac trans Ci fib]
-29.3 -33.2 69 -43 -43 опасность
обморожения
1014.4 1010.1 -29.7 -18.0 45
15 19.04 СВ 6 24 км 5/0 2000 м
[]
-27.6 -31.3 71 -41 -40 опасность
обморожения
1014.6 1010.3
18 19.04 С 2 24 км 3/0 2000 м
[Ac As Ci fib]
-24.1 -27.6 73 -31 -25 опасность
обморожения
1015.2 1010.9 -29.7 -24.0
21 19.04 СЗ 3 24 км 5/0 2000 м
[]
-22.5 -25.8 74 -30 -26 1015.3 1011.0
00 20.04 СЗ 3 24 км 4/1 1500 м
[Sc Ci fib]
-22.0 -25.6 72 -30 -29 1016.1 1011.8 -29.7 -21.8
03 20.04 СЗ 4 24 км 3/3 1500 м
[]
-25.1 -28.8 71 -35 -35 опасность
обморожения
1016.3 1012.0
06 20.04 СЗ 4 24 км 4/1 1500 м
[Sc Ac trans Ci fib]
-27.1 -30.7 71 -38 -38 опасность
обморожения
1016.9 1012.6 -29.7 -21.8
09 20.04 СЗ 3 24 км 8/8 1000 м
[]
-26.6 -30.1 72 -35 -35 опасность
обморожения
1017.7 1013.4
12 20.04 З 3 16 км 10/10 1000 м
[Sc]
-24.1 -27.6 73 -33 -33 опасность
обморожения
1018.7 1014.4 -28.5 -21.8
15 20.04 З 3 4800 м 10/10 1000 м
[]
-21.7 -25.3 73 -30 -30 1019.2 1014.9
18 20.04 З 2 9000 м слаб. снег 10/10 1500 м
[Sc]
-20.3 -24.2 71 -26 -26 1020.2 1015.9 -28.5 -20.1 0.0 45
21 20.04 З 2 16 км 10/10 1500 м
[]
-18.7 -22.9 69 -23 -23 1020.8 1016.5
00 21.04 СЗ 1 16 км слаб. снег 10/10 1500 м
[Sc]
-18.8 -22.8 71 -22 -22 1021.5 1017.2 -28.5 -18.1 0.0 45
03 21.04 С 1 24 км 6/6 1000 м
[]
-20.7 -24.0 75 -24 -24 1021.7 1017.4
06 21.04 СЗ 2 24 км 6/0
[Ac trans Ci fib]
-24.3 -27.2 77 -31 -31 опасность
обморожения
1022.1 1017.8 -28.5 -18.1

 

Местоположение метеостанции Кембридж Бэй (Нунавут, Канада): широта 69.10 долгота -105.10 высота над уровнем моря 27 м.

В архиве по умолчанию представлена погода в Кембридж Бэй за последнюю неделю. Архивные данные за месяц целиком и за предыдущие месяцы, начиная с января 2011 года, Вы можете получить, выбрав интересующий диапазон дат из раскрывающегося списка и нажав кнопку "Ввод!".


*Определитесь, кто Вы:
робот инопланетянин человек

Внимание! Время в таблицах - всемирное. Для получения местного времени необходимо прибавить поправку, которая равна -7 ч.

Смотрите также архив погоды в соседних городах и на ближайших метеорологических станциях:

Погода на Мысе Пил-Вест (Нунавут, Канада) (108 км)
Погода на Острове Хат (Нунавут, Канада) (223 км)
Погода в Джойа Хейвен (Нунавут, Канада) (374 км)
Погода в Куглуктуке (Нунавут, Канада) (432 км)
Погода в Куглуктуке (Северо-Западные территории, Канада) (432 км)
Погода в Люпине (Нунавут, Канада) (452 км)
Погода в Саскатуне (Саскачеван, Канада) (452 км)
Погода в Талойоаке (Нунавут, Канада) (454 км)
Погода на Озере Робертсон (Нунавут, Канада) (460 км)
Погода в Шеперд-Бее (Нунавут, Канада) (466 км)

Пояснения к столбцам:

Ветер - указаны скорость ветра в м/с - средняя за 10 мин, порывы в срок и между сроками (в фигурных скобках) и направление, откуда дует ветер: С - северный, СВ - северо-восточный, В - восточный, ЮВ - юго-восточный, Ю - южный, ЮЗ - юго-западный, З - западный, СЗ - северо-западный.
Видимость - горизонтальная дальность видимости в метрах или километрах. При видимости от 1 до 10 км при отсутствии осадков обычно наблюдается дымка, при ухудшении видимости до 1 км и менее - туман. В сухую погоду видимость может ухудшаться дымом, пылью или мглою.
Явления - указаны атмосферные явления, наблюдавшиеся в срок или в последний час перед сроком; фигурными скобками обозначены явления, наблюдавшиеся между сроками (за 1-3 часа до срока); квадратными скобками обозначены град или гололедные отложения с указанием их диаметра в мм.
Облачность - указаны через наклонную черту общая и нижняя облачность в баллах и высота нижней границы облаков в метрах; квадратными скобками обозначены формы облаков: Ci - перистые, Cs - перисто-слоистые, Cc - перисто-кучевые, Ac - высококучевые, As - высокослоистые, Sc - слоисто-кучевые, Ns - слоисто-дождевые, Cu - кучевые, Cb - кучево-дождевые. Подробнее классификацию облаков см. в Атласе облаков (PDF).
T - Температура воздуха - температура, измеренная на высоте 2 м над землей.
Td - Температура точки росы - температура, при понижении до которой содержащийся в воздухе водяной пар достигнет насыщения.
f - Относительная влажность воздуха - влажноcть воздуха, измеренная на высоте 2 м над землей.
Te - Эффективная температура - температура, которую ощущает одетый по сезону человек в тени. Характеристика душности погоды. При расчете учитывается влияние влажности воздуха и скорости ветра на теплоощущения человека.
Tes - Эффективная температура на солнце - температура, которую ощущает человек, с поправкой на солнечный нагрев. Характеристика знойности погоды. Зависит от высоты солнца над горизонтом, облачности и скорости ветра. Ночью, в пасмурную погоду, а также при ветре 12 м/с и более поправка равна нулю.
P - Атмосферное давление - приведенное к уровню моря атмосферное давление.
Po - Атмосферное давление - измеренное на уровне метеостанции атмосферное давление.
Tmin - Минимальная температура - минимум температуры воздуха на высоте 2 м над землей.
Tmax - Максимальная температура - максимум температуры воздуха на высоте 2 м над землей.
R - Количество осадков - Количество выпавших осадков за период времени, мм. При наведении курсора мыши на число - период времени, за который выпало указанное количество осадков.
R24 - Количество осадков - Количество выпавших осадков за 24 часа, мм.
S - Снежный покров - Высота снежного покрова, см. При наведении курсора мыши на число - состояние снежного покрова и степень покрытия местности в баллах.